When you browse on this site, cookies collect data to enhance your experience and personalize the content and advertising you see.
Visit our Privacy Policy to learn more. By continuing to use the site, you agree to this use of cookies and data.
  • In Austria
  • List of Countries
  • For 7 days
  • Water Temperature
  • Weather Map
  • News
  • Weather Widgets
  • user-avatar
    Login

    Hourly Weather Ixmiquilpan

    Today, 23 August, Friday

    Time Temperature Precipitation Wind Pressure Humidity
    00:00 +20°C° 0.4 mm 1 mps 622 mmHg 90%
    01:00 +19°C° 0.4 mm 1 mps 622 mmHg 90%
    02:00 +17°C° 0.4 mm 0 mps 621 mmHg 90%
    03:00 +19°C° 0 mm 1 mps 621 mmHg 89%
    04:00 +19°C° 0 mm 1 mps 621 mmHg 88%
    05:00 +18°C° 0 mm 1 mps 622 mmHg 86%
    06:00 +20°C° 0 mm 1 mps 622 mmHg 80%
    07:00 +21°C° 0 mm 1 mps 623 mmHg 73%
    08:00 +23°C° 0 mm 2 mps 624 mmHg 66%
    09:00 +25°C° 0 mm 2 mps 624 mmHg 61%
    10:00 +26°C° 0 mm 3 mps 624 mmHg 57%
    11:00 +28°C° 0 mm 3 mps 624 mmHg 52%
    12:00 +28°C° 0.3 mm 3 mps 624 mmHg 51%
    13:00 +28°C° 0.3 mm 3 mps 623 mmHg 51%
    14:00 +28°C° 0.3 mm 3 mps 623 mmHg 50%
    15:00 +27°C° 1 mm 3 mps 623 mmHg 55%
    16:00 +26°C° 1 mm 3 mps 622 mmHg 60%
    17:00 +25°C° 1 mm 3 mps 622 mmHg 65%
    18:00 +24°C° 0.5 mm 3 mps 622 mmHg 69%
    19:00 +22°C° 0.5 mm 3 mps 622 mmHg 74%
    20:00 +20°C° 0.5 mm 2 mps 622 mmHg 79%
    21:00 +20°C° 0 mm 2 mps 622 mmHg 80%
    22:00 +19°C° 0 mm 2 mps 622 mmHg 82%
    23:00 +19°C° 0 mm 1 mps 622 mmHg 83%

    Tomorrow, 24 August, Saturday

    Time Temperature Precipitation Wind Pressure Humidity
    00:00 +19°C° 0 mm 1 mps 622 mmHg 82%
    01:00 +19°C° 0 mm 1 mps 622 mmHg 82%
    02:00 +19°C° 0 mm 1 mps 621 mmHg 81%
    03:00 +19°C° 0 mm 1 mps 621 mmHg 81%
    04:00 +19°C° 0 mm 1 mps 621 mmHg 81%
    05:00 +18°C° 0 mm 1 mps 621 mmHg 81%
    06:00 +20°C° 0 mm 1 mps 622 mmHg 76%
    07:00 +21°C° 0 mm 1 mps 623 mmHg 70%
    08:00 +23°C° 0 mm 1 mps 624 mmHg 64%
    09:00 +24°C° 0.1 mm 1 mps 624 mmHg 60%
    10:00 +26°C° 0.1 mm 1 mps 624 mmHg 56%
    11:00 +27°C° 0.1 mm 1 mps 624 mmHg 52%
    12:00 +28°C° 0.6 mm 2 mps 624 mmHg 51%
    13:00 +28°C° 0.6 mm 2 mps 624 mmHg 51%
    14:00 +28°C° 0.6 mm 3 mps 623 mmHg 50%
    15:00 +27°C° 1.1 mm 3 mps 623 mmHg 56%
    16:00 +26°C° 1.1 mm 2 mps 622 mmHg 61%
    17:00 +25°C° 1.1 mm 2 mps 622 mmHg 67%
    18:00 +24°C° 1.6 mm 2 mps 622 mmHg 73%
    19:00 +23°C° 1.6 mm 1 mps 622 mmHg 78%
    20:00 +22°C° 1.6 mm 1 mps 623 mmHg 84%
    21:00 +21°C° 0.3 mm 1 mps 623 mmHg 86%
    22:00 +21°C° 0.3 mm 1 mps 622 mmHg 87%
    23:00 +18°C° 0.3 mm 0 mps 622 mmHg 88%

    Day after tomorrow, 25 August, Sunday

    Time Temperature Precipitation Wind Pressure Humidity
    00:00 +18°C° 0 mm 0 mps 622 mmHg 88%
    01:00 +18°C° 0 mm 0 mps 622 mmHg 88%
    02:00 +17°C° 0 mm 0 mps 621 mmHg 88%
    03:00 +17°C° 0 mm 0 mps 621 mmHg 88%
    04:00 +17°C° 0 mm 0 mps 621 mmHg 89%
    05:00 +16°C° 0 mm 0 mps 621 mmHg 89%
    06:00 +18°C° 0 mm 0 mps 622 mmHg 81%
    07:00 +20°C° 0 mm 0 mps 623 mmHg 74%
    08:00 +23°C° 0 mm 1 mps 623 mmHg 67%
    09:00 +25°C° 0 mm 1 mps 624 mmHg 61%
    10:00 +27°C° 0 mm 1 mps 624 mmHg 55%
    11:00 +28°C° 0 mm 1 mps 624 mmHg 49%
    12:00 +29°C° 0.1 mm 1 mps 624 mmHg 48%
    13:00 +29°C° 0.1 mm 2 mps 623 mmHg 47%
    14:00 +29°C° 0.1 mm 2 mps 623 mmHg 46%
    15:00 +28°C° 0.8 mm 2 mps 622 mmHg 53%
    16:00 +27°C° 0.8 mm 2 mps 622 mmHg 60%
    17:00 +26°C° 0.8 mm 3 mps 621 mmHg 67%
    18:00 +25°C° 0.6 mm 2 mps 622 mmHg 72%
    19:00 +24°C° 0.6 mm 1 mps 622 mmHg 77%
    20:00 +23°C° 0.6 mm 1 mps 622 mmHg 82%
    21:00 +22°C° 0.3 mm 1 mps 622 mmHg 83%
    22:00 +21°C° 0.3 mm 1 mps 622 mmHg 84%
    23:00 +19°C° 0.3 mm 0 mps 621 mmHg 85%

    26 August, Monday

    Time Temperature Precipitation Wind Pressure Humidity
    00:00 +21°C° 0.6 mm 1 mps 621 mmHg 86%
    01:00 +20°C° 0.6 mm 1 mps 621 mmHg 86%
    02:00 +20°C° 0.6 mm 1 mps 620 mmHg 87%
    03:00 +20°C° 0.3 mm 1 mps 620 mmHg 87%
    04:00 +19°C° 0.3 mm 1 mps 620 mmHg 88%
    05:00 +19°C° 0.3 mm 1 mps 620 mmHg 89%
    06:00 +20°C° 0 mm 1 mps 621 mmHg 82%
    07:00 +22°C° 0 mm 1 mps 622 mmHg 76%
    08:00 +23°C° 0 mm 1 mps 622 mmHg 69%
    09:00 +25°C° 0 mm 1 mps 622 mmHg 63%
    10:00 +24°C° 0 mm 0 mps 623 mmHg 57%
    11:00 +26°C° 0 mm 0 mps 623 mmHg 51%
    12:00 +28°C° 0.4 mm 1 mps 622 mmHg 50%
    13:00 +29°C° 0.4 mm 1 mps 622 mmHg 49%
    14:00 +29°C° 0.4 mm 2 mps 621 mmHg 48%
    15:00 +28°C° 1.2 mm 2 mps 621 mmHg 55%
    16:00 +27°C° 1.2 mm 3 mps 621 mmHg 63%
    17:00 +25°C° 1.2 mm 3 mps 620 mmHg 70%
    18:00 +24°C° 0.8 mm 3 mps 620 mmHg 75%
    19:00 +23°C° 0.8 mm 2 mps 621 mmHg 81%
    20:00 +22°C° 0.8 mm 1 mps 621 mmHg 86%
    21:00 +22°C° 0.4 mm 1 mps 621 mmHg 87%
    22:00 +21°C° 0.4 mm 1 mps 621 mmHg 87%
    23:00 +21°C° 0.4 mm 1 mps 621 mmHg 88%

    27 August, Tuesday

    Time Temperature Precipitation Wind Pressure Humidity
    00:00 +20°C° 0.1 mm 1 mps 621 mmHg 89%
    01:00 +20°C° 0.1 mm 1 mps 620 mmHg 89%
    02:00 +17°C° 0.1 mm 0 mps 620 mmHg 89%
    03:00 +17°C° 0 mm 0 mps 620 mmHg 90%
    04:00 +17°C° 0 mm 0 mps 620 mmHg 90%
    05:00 +16°C° 0 mm 0 mps 620 mmHg 90%
    06:00 +18°C° 0 mm 0 mps 621 mmHg 84%
    07:00 +19°C° 0 mm 0 mps 621 mmHg 77%
    08:00 +21°C° 0 mm 0 mps 622 mmHg 71%
    09:00 +24°C° 0.1 mm 1 mps 622 mmHg 65%
    10:00 +26°C° 0.1 mm 1 mps 623 mmHg 58%
    11:00 +27°C° 0.1 mm 2 mps 623 mmHg 52%
    12:00 +28°C° 0.2 mm 2 mps 623 mmHg 50%
    13:00 +28°C° 0.2 mm 3 mps 622 mmHg 49%
    14:00 +29°C° 0.2 mm 4 mps 622 mmHg 48%
    15:00 +27°C° 0.9 mm 4 mps 622 mmHg 57%
    16:00 +26°C° 0.9 mm 4 mps 621 mmHg 66%
    17:00 +23°C° 0.9 mm 4 mps 621 mmHg 75%
    18:00 +22°C° 0.9 mm 3 mps 621 mmHg 79%
    19:00 +21°C° 0.9 mm 2 mps 622 mmHg 83%
    20:00 +21°C° 0.9 mm 1 mps 622 mmHg 87%
    21:00 +21°C° 0.7 mm 1 mps 622 mmHg 87%
    22:00 +21°C° 0.7 mm 1 mps 622 mmHg 88%
    23:00 +20°C° 0.7 mm 1 mps 622 mmHg 88%

    28 August, Wednesday

    Time Temperature Precipitation Wind Pressure Humidity
    00:00 +18°C° 0.5 mm 0 mps 622 mmHg 88%
    01:00 +18°C° 0.5 mm 0 mps 622 mmHg 87%
    02:00 +18°C° 0.5 mm 0 mps 622 mmHg 87%
    03:00 +18°C° 0.3 mm 0 mps 622 mmHg 87%
    04:00 +17°C° 0.3 mm 0 mps 622 mmHg 87%
    05:00 +17°C° 0.3 mm 0 mps 622 mmHg 87%
    06:00 +18°C° 0.5 mm 0 mps 623 mmHg 82%
    07:00 +19°C° 0.5 mm 0 mps 623 mmHg 76%
    08:00 +21°C° 0.5 mm 0 mps 624 mmHg 70%
    09:00 +24°C° 0.7 mm 1 mps 624 mmHg 66%
    10:00 +25°C° 0.7 mm 1 mps 624 mmHg 62%
    11:00 +26°C° 0.7 mm 1 mps 624 mmHg 58%
    12:00 +26°C° 0.7 mm 2 mps 624 mmHg 58%
    13:00 +27°C° 0.7 mm 3 mps 623 mmHg 58%
    14:00 +27°C° 0.7 mm 4 mps 623 mmHg 57%
    15:00 +26°C° 2.3 mm 4 mps 623 mmHg 65%
    16:00 +24°C° 2.3 mm 3 mps 622 mmHg 73%
    17:00 +23°C° 2.3 mm 2 mps 622 mmHg 82%
    18:00 +21°C° 1.2 mm 2 mps 622 mmHg 85%
    19:00 +20°C° 1.2 mm 2 mps 623 mmHg 88%
    20:00 +19°C° 1.2 mm 2 mps 623 mmHg 92%
    21:00 +20°C° 0.8 mm 1 mps 623 mmHg 91%
    22:00 +19°C° 0.8 mm 1 mps 623 mmHg 90%
    23:00 +19°C° 0.8 mm 1 mps 623 mmHg 90%
    Show more